Location: Melizzano
(41.1500°N, 14.5000°E)
Time: 04:33:08
(UTC+00:00)

SJ 16-02 - Pass Details

Date: 11 May 2021
Orbit: 606 x 616 km, 75.0° (Epoch: 14 June)

Event Time Altitude Azimuth Distance (km) Brightness Sun altitude
Exits shadow 19:42:36 26° 115° (ESE) 1,223 2.3 -15.4°
Maximum altitude 19:43:17 27° 99° (E) 1,188 2.3 -15.5°
Drops below altitude 10° 19:47:01 10° 42° (NE) 1,985 4.0 -16.0°
Sets 19:49:31 0° 30° (NNE) 2,895 5.0 -16.4°
